Home > Weather > Waco > Past weeks

Flag for USA Past Weather in Waco, Texas, USA — Yesterday and Last 2 Weeks

Now
88 °F

Scattered clouds.


Feels Like: 95 °F
Forecast: 74 / 95 °F
Wind: 6 mph from North

Location: Waco Regional Airport

Current Time: Jul 26, 2016 at 1:17:20 PM

Latest Report: Jul 26, 2016 at 11:51 AM


Visibility: 10 mi

Pressure: 29.95 "Hg

Humidity: 59%

Dew Point: 72 °F

Location of WacoLocation

Past Weather in Waco — Graph

°F

Waco Temperature Yesterday

Maximum temperature yesterday: 102 °F (at 3:51 PM)
Minimum temperature yesterday: 75 °F (at 10:51 PM)
Average temperature yesterday: 85 °F

High & Low Weather Summary for the Past Weeks

 TemperatureHumidityPressure
High102 °F (Jul 25, 3:51 PM)94% (Jul 26, 12:51 AM)30.18 "Hg (Jul 26, 12:51 AM)
Low74 °F (Jul 26, 12:51 AM)28% (Jul 22, 3:51 PM)29.80 "Hg (Jul 11, 6:51 PM)
Average88 °F57%29.98 "Hg
* Reported Jul 11 11:51 AM — Jul 26 11:51 AM, Waco, Weather by CustomWeather, © 2016

Note: Actual official high and low records may vary slightly from our data, if they occured in-between our weather recording intervals... More about our weather records

Advertising

Waco Weather History for the Previous 24 Hours

Scroll right to see more
 ConditionsComfort  
Time TempWeatherWind HumidityBarometerVisibility
11:51 AM
Tue, Jul 26
88 °FScattered clouds.6 mph59%29.95 "Hg10 mi
10:51 AM86 °FPassing clouds.5 mph65%29.95 "Hg10 mi
9:51 AM82 °FScattered clouds.3 mph74%29.94 "Hg10 mi
8:58 AM79 °FPartly sunny.5 mph84%29.97 "Hg8 mi
7:51 AM76 °FFog.3 mph91%29.94 "Hg5 mi
6:51 AM74 °FFog.5 mph94%29.94 "Hg4 mi
5:51 AM74 °FFog.No wind94%29.92 "Hg6 mi
4:51 AM74 °FFog.3 mph94%29.93 "Hg6 mi
3:51 AM74 °FClear.No wind91%29.92 "Hg7 mi
2:51 AM74 °FClear.3 mph94%29.91 "Hg7 mi
1:51 AM74 °FClear.No wind91%29.91 "Hg8 mi
12:51 AM74 °FClear.No wind94%29.90 "Hg9 mi
11:51 PM
Mon, Jul 25
75 °FClear.No wind90%29.92 "Hg10 mi
10:51 PM75 °FClear.5 mph85%29.93 "Hg10 mi
9:51 PM77 °FClear.7 mph79%29.92 "Hg10 mi
8:51 PM77 °FSunny.N/A85%29.91 "Hg10 mi
7:51 PM77 °FSunny.12 mph85%29.91 "Hg10 mi
6:51 PM78 °FThundershowers. Sunny.12 mph82%29.92 "Hg10 mi
5:51 PM78 °FThunderstorms. Partly sunny.16 mph82%29.88 "Hg8 mi
4:51 PM88 °FHeavy rain. Scattered clouds.12 mph59%29.84 "Hg6 mi
3:51 PM102 °FPassing clouds.12 mph35%29.83 "Hg10 mi
2:51 PM99 °FSunny.3 mph35%29.85 "Hg10 mi
1:51 PM100 °FPartly sunny.6 mph35%29.88 "Hg10 mi
Weather by CustomWeather, © 2016

See weather overviewHow to use our weather pages